AirNav   Everest Fuels
 
 1345 users online  

PS13 Boeing Helicopters Center 3 South Heliport
Ridley Park, Pennsylvania, USA

GOING TO RIDLEY PARK?


FAA INFORMATION EFFECTIVE 16 JULY 2020

Location

FAA Identifier: PS13
Lat/Long: 39-51-33.4050N 075-19-10.6760W
39-51.556750N 075-19.177933W
39.8592792,-75.3196322
(estimated)
Elevation: 10 ft. / 3.0 m (surveyed)
Variation: 11W (1985)
Time zone: UTC -4 (UTC -5 during Standard Time)
Zip code: 19078

Heliport Operations

Heliport use: Private use. Permission required prior to landing
Activation date: 12/1974
Control tower: no
ARTCC: NEW YORK CENTER
FSS: WILLIAMSPORT FLIGHT SERVICE STATION
Attendance: DAYLIGHT HOURS
Wind indicator: yes
Segmented circle: yes

Heliport Communications

WX ASOS at PHL (4 nm E): PHONE 215-492-9617
WX AWOS-3T at OQN (14 nm NW): 121.4 ((610) 692-6190)
WX AWOS-3 at LOM (17 nm N): 118.925 (215-646-1068)
WX ASOS at ILG (17 nm SW): PHONE 302-328-1536
WX ASOS at PNE (20 nm NE): 121.15 (215-677-0146)

Nearby radio navigation aids

VOR radial/distance  VOR name  Freq  Var
OODr007/13.4WOODSTOWN VORTAC112.8010W
MXEr111/16.5MODENA VORTAC113.2009W
DQOr061/17.1DUPONT VORTAC114.0010W
PTWr162/24.4POTTSTOWN VORTAC116.5009W
VCNr330/25.2CEDAR LAKE VOR/DME115.2010W
ARDr229/30.3YARDLEY VOR/DME108.2010W
GXUr267/34.5MC GUIRE VORTAC110.6012W
ENOr023/38.7SMYRNA VORTAC111.4009W

 
NDB name  Hdg/Dist  Freq  Var  ID
AMBLER198/16.127512WING .. -. --.
RAINBOW353/27.836311WRNB .-. -. -...

Heliport Services

Airframe service: NONE
Powerplant service: NONE

Runway Information

Helipad H1

Dimensions: 100 x 100 ft. / 30 x 30 m
Surface: asphalt
Traffic pattern: leftleft
Obstructions: tower, lighted, 400 ft. from runway

Helipad H2

Dimensions: 100 x 100 ft. / 30 x 30 m
Surface: asphalt
Traffic pattern: leftleft
Obstructions: tower, lighted, 400 ft. from runway

Heliport Ownership and Management from official FAA records

Ownership: Privately-owned
Manager: BRYAN SPADT
PO BOX 16858
PHILADELPHIA, PA 19142
Phone 610-591-5635

Heliport Operational Statistics

Aircraft based on the field: 1
Helicopters: 1
    

Additional Remarks

FOR CD CTC PHILADELPHIA APCH AT 800-354-9884.

Instrument Procedures

There are no published instrument procedures at PS13.

Some nearby airports with instrument procedures:

KPHL - Philadelphia International Airport (4 nm E)
7N7 - Spitfire Aerodrome (8 nm SW)
KOQN - Brandywine Regional Airport (14 nm NW)
17N - Cross Keys Airport (16 nm SE)
KLOM - Wings Field Airport (17 nm N)
KILG - New Castle Airport (17 nm SW)
19N - Camden County Airport (18 nm E)
KPNE - Northeast Philadelphia Airport (20 nm NE)
 
Loc | Ops | Rwys | IFR | FBO | Links
Com | Nav | Svcs | Stats | Notes
Area around PS13 (Boeing Helicopters Center 3 South Heliport)
 
Road maps at: MapQuest Bing Google
 
Aerial photo
No photo
 
Sectional chart

 
Airport distance calculator
Flying to Boeing Helicopters Center 3 South Heliport? Find the distance to fly.

From to PS13

Sunrise and sunset
Times for 04-Aug-2020
 Local
(UTC-4)
 Zulu
(UTC)
Morning civil twilight05:3509:35
Sunrise06:0510:05
Sunset20:1000:10
Evening civil twilight20:4000:40

Current date and time
Zulu (UTC)  04-Aug-2020 22:13:50
Local (UTC-4)  04-Aug-2020 18:13:50
 
METAR
KPHL 
4nm E 
042154Z 23013KT 10SM SCT040 SCT060 28/20 A2983 RMK AO2 SLP102 T02780200
KOQN 
14nm NW 
042155Z AUTO 00000KT 10SM SCT041 SCT060 27/20 A2984 RMK AO2
KLOM 
17nm N 
042155Z AUTO 22009KT 10SM SCT035 BKN046 27/20 A2983 RMK AO2 P0003 T02680200
KILG 
17nm SW 
042151Z 21007KT 10SM FEW037 SCT046 BKN060 27/21 A2984 RMK AO2 SLP104 T02720206
KPNE 
19nm NE 
042154Z AUTO 25011G17KT 10SM FEW044 SCT050 27/19 A2983 RMK AO2 SLP100 T02720194
TAF
KPHL 
4nm E 
041721Z 0418/0524 28030G45KT P6SM BKN015 OVC040 TEMPO 0418/0419 5SM SHRA SCT015 OVC025 FM042000 25025G40KT P6SM VCSH SCT020 OVC050 FM042100 25020G35KT P6SM BKN050 FM050200 22012KT P6SM SCT200 FM050500 26005KT P6SM FEW200
KILG 
17nm SW 
041721Z 0418/0518 32032G45KT P6SM SHRA SCT015 OVC050 TEMPO 0418/0419 5SM SHRA BKN012 OVC025 FM042000 27025G40KT P6SM VCSH SCT020 OVC050 FM042100 26020G35KT P6SM BKN050 FM050200 22012KT P6SM SCT200 FM050500 26005KT P6SM FEW200
KPNE 
19nm NE 
041914Z 0419/0518 27025G40KT P6SM VCSH SCT020 BKN200 FM042100 27020G30KT P6SM BKN050 FM050100 22012KT P6SM SCT200 FM050500 26005KT P6SM FEW200
NOTAMs
Click for the latest NOTAMs
NOTAMs are issued by the DoD/FAA and will open in a separate window not controlled by AirNav.

 

 
 

Would you like to see your business listed on this page?

 If your business provides an interesting product or service to pilots, flight crews, aircraft, or users of the Boeing Helicopters Center 3 South Heliport, you should consider listing it here.  To start the listing process, click on the button below
 
Add a business
 

Other Pages about Boeing Helicopters Center 3 South Heliport

Update a link
 
Copyright © AirNav, LLC. All rights reserved. Privacy Policy  Contact